Wind_Speed
3 3 3 3 2 1 1 1 1 2 2 3 3 4 5 5 6 7 7 7 7 7 7 7 7 7 6 6 7 7 6 6 6 6 6 6 6 6 6 6 6 6 6
5 4 4 4 3 2 2 2 2 2 2 2 3 3 4 4 5 5 6 6 6 5 5 6 6 5 5 5 5 6 6 6 6 6 6 6 6 6 6 6 6 6 6
6 5 5 4 4 3 3 2 2 2 2 2 2 2 3 3 4 4 4 4 4 4 4 4 4 4 4 4 4 4 5 5 5 5 5 5 5 5 5 5 6 6 6
7 6 6 5 5 4 4 3 3 3 2 2 2 2 2 2 3 3 3 3 3 3 3 3 3 3 3 3 3 3 3 4 4 4 4 4 4 4 5 5 5 5 5
8 8 7 7 6 6 5 4 4 3 3 3 3 2 2 2 2 2 2 2 2 2 2 2 2 2 2 2 2 2 2 3 3 3 3 3 3 3 4 4 4 5 5
9 9 9 8 8 7 6 5 5 4 4 3 3 3 2 2 1 1 1 1 1 1 1 1 1 1 1 1 1 1 1 1 1 1 1 1 2 2 3 3 3 4 4
9 10 10 9 9 8 7 7 6 5 5 5 4 3 2 2 2 1 1 1 1 1 1 1 1 1 1 1 1 1 1 1 1 0 0 0 1 1 2 2 2 2 3
10 11 11 11 10 9 9 8 7 7 6 5 5 4 3 3 2 2 1 1 1 1 1 2 2 2 2 2 2 2 2 2 2 2 2 1 1 1 1 1 1 1 2
10 11 11 12 12 10 10 9 8 8 7 6 6 4 4 3 2 2 2 1 2 2 2 2 2 3 3 3 3 3 3 3 3 3 3 2 2 2 2 2 2 2 2
10 11 12 13 13 12 11 11 10 9 8 7 6 5 4 4 3 3 2 2 2 2 2 2 3 3 4 4 4 3 3 3 4 4 4 4 3 3 3 3 3 4 3
12 12 12 14 14 12 12 12 11 10 9 8 8 6 5 5 4 3 3 3 3 3 2 3 3 3 3 3 4 3 3 3 3 4 4 4 4 4 4 4 4 4 4
12 13 13 14 14 13 13 13 12 11 11 10 9 7 6 5 5 4 3 4 4 3 2 2 3 3 3 3 4 4 3 3 4 4 3 4 4 4 4 4 5 5 5
13 14 14 14 14 14 13 14 13 12 11 10 10 8 7 6 5 5 4 4 4 3 2 2 2 3 3 3 3 3 3 3 3 4 3 3 3 4 5 5 5 6 6
13 13 14 14 14 14 14 14 14 13 12 11 10 9 8 7 6 5 4 4 3 3 2 2 2 2 3 3 3 3 2 3 4 3 4 4 4 4 5 5 5 6 6
15 14 14 15 15 15 15 14 13 13 13 12 11 9 8 7 6 6 5 4 4 3 2 2 2 2 2 2 2 2 2 2 2 3 3 3 3 4 5 6 6 6 6
15 14 15 15 15 16 15 16 15 14 13 12 11 10 9 8 7 7 6 5 4 3 3 2 2 1 1 1 1 1 2 2 2 2 2 3 3 4 5 5 6 6 7
16 15 15 15 16 16 16 17 16 15 14 13 12 11 9 8 8 7 6 5 4 3 3 2 2 2 1 1 1 1 1 1 1 1 2 3 4 4 5 5 5 6 6
16 16 16 15 16 16 16 17 17 17 15 14 14 12 10 9 8 8 7 5 4 4 3 3 2 2 2 1 2 1 1 1 1 1 2 4 4 5 5 5 6 6 7
15 15 16 16 16 16 17 18 18 17 16 15 14 12 11 10 8 8 7 6 5 4 3 3 2 2 2 2 1 1 1 1 1 2 2 4 5 5 5 5 6 6 7
16 15 16 16 15 16 17 17 18 18 17 16 15 13 12 10 9 9 8 7 5 4 4 3 3 2 2 1 1 1 0 1 2 2 3 4 5 6 6 6 6 6 7
15 15 16 16 16 17 17 16 16 18 17 16 15 13 12 11 10 8 8 8 6 5 4 3 2 2 2 1 1 0 0 1 2 3 4 5 5 6 6 6 7 7 7
14 15 15 14 14 15 16 16 17 18 18 17 15 14 12 11 10 9 8 8 6 5 4 3 3 2 1 1 0 0 1 2 3 4 4 5 6 6 6 6 6 6 7
14 14 15 14 13 14 15 15 16 17 18 17 16 15 14 12 11 9 9 8 7 6 5 4 4 3 1 1 1 1 2 2 3 4 5 5 6 7 7 7 8 7 7
13 14 14 13 13 15 15 14 15 16 17 17 17 16 15 14 12 11 10 9 8 6 5 4 4 3 2 2 2 2 3 3 4 5 6 6 6 7 7 7 8 8 8
13 13 13 13 13 14 15 15 15 15 16 18 18 17 15 14 13 12 11 9 8 6 6 5 5 4 3 3 2 3 3 4 5 6 7 7 8 8 8 8 8 8 8
11 11 11 12 13 15 15 15 15 16 16 17 18 18 16 15 14 13 12 10 8 8 7 6 5 5 4 4 3 3 4 5 6 7 8 8 9 9 9 9 9 9 9
Wind_Direction
238 215 199 190 172 180 192 186 180 156 142 130 126 122 116 115 113 110 108 107 105 105 105 104 101 98 95 93 89 86 84 82 80 76 74 74 72 68 67 71 73 75 75
243 226 217 216 207 214 218 215 211 188 166 147 140 130 121 118 117 115 113 111 110 111 111 110 107 103 98 94 90 88 86 85 84 83 80 77 72 68 68 70 67 70 69
249 236 231 229 222 224 227 223 219 213 204 187 166 144 129 124 122 119 116 113 113 114 113 112 111 109 105 100 96 92 89 85 86 90 83 78 74 70 71 70 66 67 67
251 241 236 233 230 228 229 228 223 225 228 215 197 173 147 132 127 125 123 123 119 115 115 116 117 117 115 110 105 101 95 86 85 91 85 80 77 73 72 70 65 66 64
251 244 240 237 235 231 230 232 231 236 239 232 219 199 182 164 144 134 132 135 133 121 118 121 124 125 122 121 115 109 104 100 90 92 90 87 82 78 75 68 61 61 62
254 246 241 238 236 233 232 235 236 239 241 240 232 215 200 197 182 168 151 153 154 154 152 149 144 144 144 152 159 146 130 124 108 97 96 88 79 72 68 63 58 59 61
259 248 239 236 234 233 234 236 239 242 248 243 236 226 218 224 221 210 182 168 169 170 182 188 191 210 212 217 227 224 217 202 208 226 289 6 49 49 43 40 39 44 46
262 251 241 233 231 233 233 235 240 246 250 245 238 232 232 238 231 226 217 206 210 216 215 217 224 236 239 242 246 245 244 238 238 262 281 292 304 328 337 340 351 3 17
258 249 241 235 232 233 233 233 237 244 247 242 237 235 239 244 236 235 238 237 246 245 241 242 245 249 252 256 260 257 256 250 251 258 268 274 283 297 306 304 306 310 306
251 247 241 237 234 232 232 232 237 241 243 240 237 238 244 248 245 242 242 256 260 260 262 255 252 251 253 260 266 268 265 266 263 264 265 270 275 281 288 292 292 289 288
258 251 243 240 238 236 234 233 236 239 239 237 238 240 243 243 243 240 253 264 264 270 275 263 257 253 258 264 272 277 279 271 272 275 275 279 277 273 283 290 289 285 283
258 248 245 243 240 239 235 231 233 236 237 236 238 240 238 240 243 245 257 262 264 273 273 270 264 261 264 270 277 277 274 267 270 274 277 286 275 272 285 292 291 286 280
267 254 251 248 242 240 236 232 232 232 235 237 237 239 238 239 244 246 253 258 258 260 262 270 274 273 267 270 275 266 257 252 271 271 273 285 283 282 283 291 296 283 274
270 259 254 251 244 242 236 230 228 228 231 232 234 238 239 243 242 246 251 254 252 249 271 278 272 267 267 262 260 261 270 262 255 272 282 284 289 285 288 292 299 296 284
273 261 254 251 246 243 234 228 226 228 230 231 232 238 240 244 241 242 244 249 247 254 272 274 265 245 244 237 251 261 258 271 268 270 278 290 297 301 302 301 298 296 295
272 266 255 250 248 243 236 230 227 230 230 230 232 236 237 240 242 241 239 243 243 246 252 251 242 236 237 235 266 271 268 275 278 279 293 304 308 310 312 313 311 304 298
271 266 258 253 248 245 237 232 229 229 230 230 233 236 237 238 239 235 236 239 235 240 245 238 223 222 227 242 259 276 299 305 305 305 313 319 324 318 315 313 308 307 307
271 266 260 255 247 246 237 233 230 229 230 231 231 232 237 236 234 233 233 230 236 245 251 235 221 218 231 234 248 260 299 317 311 321 322 326 326 321 319 320 316 310 306
272 264 257 255 250 245 238 235 231 229 229 230 231 231 235 234 230 230 230 228 231 241 249 240 230 227 226 223 224 228 262 307 323 330 334 331 332 331 324 323 326 319 310
270 263 257 258 248 241 239 237 233 228 229 229 228 227 231 230 225 227 228 223 226 239 241 230 223 220 211 200 197 202 266 319 337 337 335 335 337 337 336 330 327 327 316
266 263 260 255 248 241 241 239 234 228 227 227 225 222 225 223 220 223 221 219 222 232 226 208 209 202 192 189 185 198 325 324 337 335 334 333 332 335 334 335 334 333 328
263 262 260 254 249 239 238 237 233 229 228 227 223 223 223 219 220 215 214 219 221 224 214 207 201 191 181 182 196 321 331 335 339 338 335 336 335 336 337 340 342 340 336
264 259 257 252 242 237 239 238 233 228 226 225 223 223 221 216 216 215 213 218 218 217 216 214 210 207 212 233 278 321 326 328 335 336 333 333 333 333 336 340 338 340 339
264 257 254 248 241 238 238 236 231 229 228 225 221 218 217 216 215 214 212 210 212 218 215 214 221 222 230 251 281 309 321 325 330 333 335 335 334 333 333 332 332 332 336
262 255 253 246 240 238 238 236 232 232 227 224 218 216 215 212 212 214 212 212 214 217 216 221 229 232 234 250 276 299 317 325 327 329 333 334 333 333 333 332 334 334 334
262 254 250 242 240 239 237 235 235 230 224 220 217 217 214 211 213 212 213 214 215 215 217 224 230 235 242 253 270 291 310 320 325 324 326 328 327 327 326 327 328 328 327
Height
5877 5877 5878 5878 5878 5879 5879 5879 5879 5879 5879 5879 5879 5879 5879 5879 5880 5880 5880 5880 5881 5881 5881 5881 5881 5882 5882 5882 5882 5882 5882 5882 5882 5883 5883 5883 5883 5883 5883 5883 5884 5884 5884
5877 5877 5878 5878 5879 5879 5879 5880 5880 5880 5880 5880 5880 5880 5880 5880 5881 5881 5881 5881 5882 5882 5882 5882 5882 5883 5883 5883 5883 5883 5883 5883 5883 5884 5884 5884 5885 5885 5885 5885 5885 5885 5885
5876 5877 5878 5878 5879 5879 5880 5880 5880 5880 5881 5881 5881 5881 5881 5881 5881 5882 5882 5882 5883 5883 5883 5883 5883 5884 5884 5884 5884 5884 5884 5884 5885 5885 5885 5885 5886 5886 5886 5886 5886 5886 5886
5876 5877 5877 5878 5878 5879 5880 5880 5880 5881 5881 5881 5881 5882 5882 5882 5882 5882 5883 5883 5883 5883 5884 5884 5884 5884 5885 5885 5885 5885 5885 5886 5886 5886 5886 5887 5887 5887 5887 5887 5887 5887 5887
5875 5876 5877 5877 5878 5879 5879 5880 5881 5881 5881 5882 5882 5882 5882 5883 5883 5883 5883 5883 5884 5884 5884 5885 5885 5885 5885 5885 5885 5886 5886 5886 5887 5887 5887 5888 5888 5888 5888 5888 5888 5888 5888
5874 5875 5876 5876 5877 5878 5879 5880 5881 5881 5882 5882 5882 5882 5883 5883 5883 5883 5884 5884 5884 5884 5885 5885 5885 5885 5886 5886 5886 5886 5886 5887 5887 5888 5888 5888 5889 5889 5889 5889 5889 5889 5889
5873 5874 5874 5875 5876 5877 5878 5879 5880 5881 5882 5882 5882 5882 5883 5883 5883 5883 5884 5884 5884 5885 5885 5885 5886 5886 5886 5886 5886 5886 5887 5887 5888 5888 5889 5889 5889 5889 5890 5890 5890 5890 5890
5872 5872 5873 5874 5875 5877 5878 5879 5880 5881 5881 5882 5882 5882 5883 5883 5883 5883 5884 5884 5884 5885 5885 5885 5886 5886 5886 5886 5886 5886 5887 5888 5888 5889 5889 5889 5890 5890 5890 5890 5890 5891 5891
5870 5871 5872 5873 5874 5876 5877 5878 5879 5880 5881 5882 5882 5882 5882 5883 5883 5884 5884 5884 5884 5884 5885 5885 5885 5886 5886 5886 5886 5886 5887 5888 5888 5889 5889 5889 5890 5890 5890 5891 5891 5891 5891
5867 5869 5871 5872 5873 5874 5876 5877 5878 5879 5880 5881 5882 5882 5882 5883 5883 5883 5884 5884 5884 5884 5884 5885 5885 5886 5886 5886 5886 5887 5887 5887 5888 5888 5889 5889 5889 5890 5890 5890 5891 5891 5891
5867 5868 5869 5870 5872 5873 5874 5876 5877 5878 5879 5881 5881 5882 5882 5882 5883 5883 5883 5884 5884 5884 5884 5884 5885 5885 5885 5886 5886 5887 5887 5887 5887 5888 5888 5889 5889 5890 5890 5890 5890 5891 5891
5865 5867 5868 5869 5870 5872 5873 5874 5876 5877 5878 5880 5881 5881 5882 5882 5883 5883 5883 5883 5883 5883 5884 5884 5884 5885 5885 5885 5886 5886 5887 5887 5887 5888 5888 5888 5889 5889 5889 5890 5890 5890 5890
5863 5864 5865 5867 5868 5870 5871 5873 5874 5876 5877 5878 5880 5880 5881 5882 5882 5882 5883 5883 5883 5883 5883 5884 5884 5885 5885 5884 5885 5886 5886 5887 5887 5886 5888 5888 5888 5889 5889 5889 5890 5890 5890
5861 5862 5863 5865 5866 5868 5869 5871 5873 5874 5876 5877 5878 5879 5880 5881 5882 5882 5882 5882 5883 5883 5883 5884 5884 5884 5884 5885 5885 5886 5886 5887 5886 5887 5888 5888 5888 5888 5888 5889 5889 5889 5889
5859 5859 5861 5862 5864 5866 5867 5869 5871 5873 5875 5876 5877 5878 5879 5880 5881 5881 5882 5882 5882 5883 5883 5884 5884 5884 5885 5885 5885 5885 5885 5886 5887 5886 5887 5887 5888 5888 5888 5888 5888 5888 5888
5857 5857 5858 5859 5861 5863 5865 5867 5869 5871 5873 5875 5876 5877 5878 5879 5880 5881 5881 5882 5882 5883 5883 5883 5884 5884 5885 5885 5885 5885 5885 5886 5886 5886 5887 5887 5887 5887 5887 5887 5887 5887 5887
5854 5854 5855 5857 5858 5860 5862 5864 5867 5869 5871 5873 5875 5876 5877 5878 5879 5880 5881 5881 5882 5882 5883 5883 5884 5884 5885 5885 5885 5885 5885 5885 5886 5886 5886 5887 5887 5887 5887 5887 5886 5886 5886
5851 5852 5853 5854 5855 5857 5859 5862 5864 5867 5869 5871 5873 5875 5876 5877 5878 5879 5880 5881 5881 5882 5883 5883 5884 5884 5884 5885 5885 5885 5885 5885 5885 5886 5886 5886 5886 5886 5886 5886 5885 5885 5885
5848 5849 5850 5851 5853 5855 5857 5859 5862 5864 5867 5869 5871 5873 5875 5876 5877 5878 5879 5880 5881 5882 5882 5883 5884 5884 5884 5884 5885 5885 5885 5885 5885 5885 5885 5886 5886 5885 5885 5885 5884 5884 5884
5845 5846 5847 5848 5850 5852 5854 5856 5859 5862 5864 5867 5869 5871 5873 5875 5876 5877 5878 5880 5881 5881 5882 5883 5883 5883 5884 5884 5884 5884 5885 5885 5885 5885 5885 5885 5885 5885 5884 5884 5884 5883 5883
5842 5843 5844 5845 5847 5849 5852 5854 5856 5860 5862 5865 5867 5869 5871 5873 5874 5876 5877 5879 5880 5881 5881 5882 5883 5883 5883 5884 5884 5884 5885 5885 5885 5885 5885 5885 5884 5884 5884 5883 5883 5882 5881
5839 5840 5841 5842 5844 5847 5849 5851 5854 5857 5860 5863 5865 5868 5870 5871 5873 5875 5876 5878 5879 5880 5881 5882 5883 5883 5884 5884 5884 5884 5884 5885 5885 5885 5884 5884 5884 5883 5882 5882 5882 5882 5881
5836 5837 5838 5840 5841 5844 5846 5849 5851 5854 5857 5860 5863 5866 5868 5870 5872 5874 5875 5877 5879 5880 5881 5882 5883 5883 5883 5884 5884 5884 5884 5884 5884 5884 5884 5883 5883 5882 5882 5881 5881 5880 5880
5834 5834 5836 5838 5839 5841 5843 5846 5848 5851 5854 5857 5860 5863 5866 5868 5871 5873 5875 5876 5878 5879 5880 5881 5882 5883 5883 5883 5883 5884 5884 5884 5884 5884 5883 5883 5882 5882 5881 5881 5880 5879 5879
5831 5832 5833 5835 5837 5839 5841 5844 5846 5849 5851 5854 5858 5861 5864 5866 5869 5872 5874 5875 5877 5878 5880 5881 5882 5882 5883 5883 5883 5883 5883 5883 5883 5883 5883 5882 5881 5881 5880 5880 5879 5878 5878
5829 5830 5831 5832 5835 5837 5839 5841 5843 5846 5848 5852 5855 5858 5861 5865 5868 5870 5872 5874 5876 5877 5879 5880 5881 5882 5882 5882 5883 5883 5883 5883 5883 5882 5882 5881 5881 5880 5879 5879 5878 5877 5876